Preview of NWS' New Version of Forecast
This preview is not operational and should not be used for support decisions.

Regional Weather Roundup (RWR)

Issued by National Weather Service (NWS)

                            
000
ASUS42 KTBW 170916
RWRFL 
FLORIDA REGIONAL WEATHER ROUNDUP
NATIONAL WEATHER SERVICE TAMPA BAY RUSKIN FL
500 AM EDT SUN MAR 17 2019

NOTE: "FAIR" INDICATES FEW OR NO CLOUDS BELOW 12,000 FEET WITH NO
SIGNIFICANT WEATHER AND/OR OBSTRUCTIONS TO VISIBILITY.

FLZ001>010-012>015-112-114-115-171000-
PANHANDLE FLORIDA
  
CITY           SKY/WX    TMP DP  RH WIND       PRES   REMARKS
PENSACOLA      CLOUDY    51  35  54 N6        30.20F                  
PENSACOLA NAS  CLOUDY    50  37  61 N3        30.19F                  
MILTON NAS     CLOUDY    47  37  68 N3        30.20F                  
CRESTVIEW      MOCLDY    49  33  54 VRB5      30.21F                  
DUKE FIELD     CLOUDY    49  32  51 N7        30.19F                  
VALPARAISO     CLOUDY    51  31  46 N8        30.18F                  
MARY ESTHER    CLOUDY    51  28  41 N9        30.18F                  
PANAMA CITY    CLOUDY    52  35  52 N5        30.17F                  
TYNDALL AFB    CLOUDY    53  37  54 N9        30.18S                  
APALACHICOLA   LGT RAIN  51  38  60 N12       30.16R                  

STATION/POSITION SKY/WX   TEMP    WIND        PRES    WAVE   SWELL
                          AIR SEA DIR/SP/G            HT/PER HT/PER
                          (F)     (DEG/KT/KT) (MB)    (FT/S) (FT/S)
30.1N   87.6W                                 1022.6F   3/ 4
29.2N   88.2W                      40/ 12/ 16 1022.9F   4/ 5
PANAMA CITY BEAC           52 65  360/  5/  8 1022.6R
TOWER C                    55      20/ 15/ 16 1021.2R

$$
FLZ011-016>038-118-127-128-134-139-239-171000-
NORTH FLORIDA
  
CITY           SKY/WX    TMP DP  RH WIND       PRES   REMARKS
MARIANNA       CLOUDY    51  35  54 N7        30.18F                  
TALLAHASSEE    CLOUDY    53  39  59 N8        30.17R                  
PERRY          CLOUDY    53  43  67 N5        30.15S                  
LIVE OAK       CLOUDY    54  43  66 CALM      30.14R                  
CROSS CITY     CLOUDY    54  47  75 N6        30.12S                  
LAKE CITY      CLOUDY    52  45  76 N5        30.12F                  
GAINESVILLE    CLOUDY    57  46  66 N5        30.13F                  
WILLISTON        N/A    N/A N/A N/A MISG        N/A                   
PALATKA        FAIR     N/A N/A N/A N3        30.11F                  
MAYPORT NAS    MOCLDY    61  52  72 NE13      30.11F                  
JACKSONVILLE   CLOUDY    55  46  71 N7        30.11F                  
JAX NAS        CLOUDY    59  47  64 N12       30.12F                  
JAX CECIL      CLOUDY   N/A N/A N/A N3        30.11F                  
FERNANDINA BEA CLOUDY    59  50  72 N6        30.12F                  
ST AUGUSTINE   FAIR      57  52  83 NW7       30.12S                  
PALM COAST     CLOUDY    61  55  79 N6        30.09F                  

STATION/POSITION SKY/WX   TEMP    WIND        PRES    WAVE   SWELL
                          AIR SEA DIR/SP/G            HT/PER HT/PER
                          (F)     (DEG/KT/KT) (MB)    (FT/S) (FT/S)
SHELL POINT      NOT AVBL
KEATON BEACH               53      20/  5/  7 1020.5S
CEDAR KEY                  55      40/  6/  7 1019.2F
FERNANDINA                 60 65  350/  6/  9 1020.6F
30.7N   81.3W                 63                N/A     3/ 4
MAYPORT                    61 64   40/  9/ 15 1019.7F
31.4N   80.9W              59 63   50/ 14/ 17 1020.2F   3/ 4   2/10
ST AUGUSTINE               62 63   10/ 15/ 17 1019.4S

$$
FLZ040-043>046-052-053-057-058-063-144-171000-
INTERIOR CENTRAL FLORIDA
  
CITY           SKY/WX    TMP DP  RH WIND       PRES   REMARKS
OCALA          CLOUDY    56  53  90 N5        30.11F                  
LEESBURG       CLOUDY    58  56  93 N7        30.09F                  
SANFORD        CLOUDY    63  54  72 N7        30.08F                  
ORLANDO EXEC   CLOUDY    64  52  64 N8        30.08F                  
ORLANDO INTL   CLOUDY    61  54  77 N12       30.08F                  
KISSIMMEE      CLOUDY    62  54  74 N8        30.09F                  
WINTER HAVEN   CLOUDY    63  55  75 NE7       30.09F                  
LAKELAND       CLOUDY    61  54  77 N6        30.08F                  
BARTOW         CLOUDY    63  55  77 N7        30.07F                  
SEBRING        CLOUDY    64  60  88 N6        30.07S                  
OKEECHOBEE     MOCLDY    61  59  94 CALM      30.05S                  

$$
FLZ041-047-054-059-064-141-147-171000-
EAST CENTRAL FLORIDA
  
CITY           SKY/WX    TMP DP  RH WIND       PRES   REMARKS
DAYTONA BEACH  LGT RAIN  60  59  96 N9        30.08F                  
DELAND         LGT RAIN  59  57  94 NE7       30.07F                  
JFK SPACE CTR  CLOUDY    64  57  77 N9          N/A                   
CAPE CANAVERAL FAIR      66  57  74 N12       30.05S                  
PATRICK AFB    FAIR      66  62  86 N15       30.05F                  
MELBOURNE      CLOUDY    66  59  78 N12       30.05F                  
VERO BEACH     MOCLDY    66  62  87 N8        30.05S                  
FT PIERCE      FAIR      63  61  93 W6        30.04S                  
STUART         FAIR      66  63  88 NW3       30.04F                  

STATION/POSITION SKY/WX   TEMP    WIND        PRES    WAVE   SWELL
                          AIR SEA DIR/SP/G            HT/PER HT/PER
                          (F)     (DEG/KT/KT) (MB)    (FT/S) (FT/S)
28.5N   80.2W              69     340/ 17/ 21 1017.6S   4/ 3   2/10
28.9N   78.5W              72 75  360/  8/ 10 1017.7F   3/ 6   3/ 6
TRIDENT PIER               65 69  340/ 12/ 15 1019.0F
28.4N   80.5W                 69                N/A     2/10
27.5N   80.2W                 72                N/A     3/10

$$
FLZ050-056-061-142-242-148-248-149-249-151-251-155-255-
160-260-171000-
WEST CENTRAL FLORIDA
  
CITY           SKY/WX    TMP DP  RH WIND       PRES   REMARKS
CRYSTAL RIVER  CLOUDY    59  54  82 NE3       30.10F                  
INVERNESS      CLOUDY    59  54  82 NE7       30.11S                  
BROOKSVILLE    CLOUDY    61  50  67 NE8       30.09F                  
CLEARWATER AIR FAIR      63  55  77 E5        30.06F                  
ST PETE CLEARW MOCLDY    65  57  75 E9        30.06F                  
TAMPA INTL     CLOUDY    65  53  65 NE8       30.07F                  
TAMPA EXEC     CLOUDY    63  54  72 CALM      30.08F                  
PLANT CITY     CLOUDY    63  54  72 N3        30.09F                  
MACDILL AFB    CLOUDY    65  57  74 E8        30.06F                  
PETER O KNIGHT CLOUDY    64  57  77 NE10      30.07F                  
ST PETERSBURG  CLOUDY    67  61  81 E12       30.05F                  
SARASOTA       CLOUDY    66  61  84 NE8       30.04F                  
VENICE         CLOUDY    70  70 100 E7        30.05F                  

STATION/POSITION SKY/WX   TEMP    WIND        PRES    WAVE   SWELL
                          AIR SEA DIR/SP/G            HT/PER HT/PER
                          (F)     (DEG/KT/KT) (MB)    (FT/S) (FT/S)
27.3N   84.2W                 74                N/A     3/ 5
CLEARWATER BEACH           66 75   70/  8/ 10 1018.0F
MIDDLE TAMPA BAY           67      70/  9/ 11 1018.4F
VENICE                     69 73   80/  6/  8 1017.8F

$$
FLZ066-069-070-075>078-162-262-165-265-171000-
SOUTHWEST FLORIDA AND KEYS
  
CITY           SKY/WX    TMP DP  RH WIND       PRES   REMARKS
PUNTA GORDA    FOG       67  66  97 NE7       30.07S VSB 1            
FT MYERS       CLOUDY    69  67  93 E3        30.04S                  
SOUTHWEST INTL CLOUDY    69  67  93 E5        30.04S                  
NAPLES         CLOUDY    70  69  97 E6        30.03F                  
MARCO ISLAND   FOG       69  69 100 NE6       30.04F VSB 1/2          
IMMOKALEE      CLOUDY    70  68  94 NE5       30.02S                  
MARATHON       FAIR      78  69  73 NE3       30.01F                  
KEY WEST NAS   FAIR      76  70  82 N5        30.02F                  
KEY WEST INTL  FAIR      75  71  87 N3        30.03S                  

STATION/POSITION SKY/WX   TEMP    WIND        PRES    WAVE   SWELL
                          AIR SEA DIR/SP/G            HT/PER HT/PER
                          (F)     (DEG/KT/KT) (MB)    (FT/S) (FT/S)
NAPLES                     71 78   70/  4/  7 1016.8F
26.0N   85.6W              73 80   30/ 16/ 19 1017.5F   3/ 7   2/ 7
DRY TORTUGAS               76        CALM     1017.0R
SAND KEY                   76                 1016.7F
SOMBRERO KEY               76                 1016.0F
MOLASSES REEF              77 78     CALM     1017.0

$$
FLZ067-068-071>074-168-172>174-171000-
SOUTHEAST FLORIDA 
  
CITY           SKY/WX    TMP DP  RH WIND       PRES   REMARKS
W PALM BEACH   MOCLDY    68  66  93 CALM      30.03F                  
FT LAUDER-EXEC CLOUDY    70  70 100 N3        30.02S                  
FT LAUDERDALE  CLOUDY    72  66  81 CALM      30.01F                  
POMPANO BEACH  MOCLDY    71  68  90 NW5       30.02                   
PEMBROKE PINES CLOUDY    69  67  93 CALM      30.03F                  
OPA LOCKA      CLOUDY    71  67  87 CALM      30.02F                  
MIAMI          MOCLDY    72  70  93 CALM      30.02F                  
WEST KENDALL   FAIR      71  69  93 CALM      30.02F                  
HOMESTEAD      FAIR      71  69  94 CALM      30.01F                  

STATION/POSITION SKY/WX   TEMP    WIND        PRES    WAVE   SWELL
                          AIR SEA DIR/SP/G            HT/PER HT/PER
                          (F)     (DEG/KT/KT) (MB)    (FT/S) (FT/S)
PORT EVERGLADES            74      80/  2/  3 1016.3F
VIRGINIA KEY               76 78   CALM  /  2 1016.0S
LAKE WORTH                 70 78  330/  8/ 10 1017.9F
FOWEY ROCKS                77 77  140/  3/  4 1017.3F
SETTLEMENT POINT           73     260/ 12/ 13 1017.2R

$$